STARLINK-1623 (46129 NORAD) Tracking and Keplerian Element Data

This shows tracking and keplerian element data for the satellite.

Feedback or suggestion? Click here.




ElementValue
Catalog46129
NameSTARLINK-1623
Epoch Orbit178
Epoch Day330.91667824
Epoch Year2020
RAAN313.6417
Inclination52.9967
Eccentricity0.0004056
Argument of Perigee8.7753
Mean Anonmoly295.8729
Mean Motion15.62791061
Decay Rate-0.00016551
L11 46129U 20057N 20330.91667824 -.00016551 00000-0 -17491-3 0 9992
L22 46129 52.9967 313.6417 0004056 8.7753 295.8729 15.62791061 1788

Live tracking and technical data element details for STARLINK-1623 (NORAD 46129). STARLINK-1623 can be tracked NOW for your location showing map with azimuth and elevation plus other details from your city location.

Track the satellite on the map from your city or location and see movement details for azimuth, elevation, latitude, longitude, range, height, and movement on the map or in text.







IsCatalogInMostPopularTable: catalog: 46129, numindb: 21
Update: records affected: 1



GetName: 46129 STARLINK-1623

Hit Count: updated at: Thu, 26 Nov 2020 23:11:01 GMT